[[{"header":{"parameterUnit":"m.s-1","parameterCategory":1,"la1":30.2992,"la2":30.254,"lo1":-89.0895,"lo2":-89.0443,"dy":0.0025,"dx":0.0025,"nx":19,"ny":19,"refTime":"2026-04-10T09:00:00:Z","depth":0,"parameterNumber":2,"parameterNumberName":"U-component_of_WINDS"},"data":[0,0,0,-2.3571,-2.357,-2.3535,-2.3535,-2.3513,-2.3513,0,0,0,0,0,0,0,0,0,0,0,-2.3595,-2.3595,-2.3571,-2.357,-2.3535,-2.3535,-2.3513,-2.3513,0,0,0,0,0,0,0,0,0,0,0,-2.3595,-2.3595,-2.3596,-2.357,-2.3535,-2.3535,-2.3513,-2.3531,0,0,0,0,0,0,0,0,0,0,-2.3561,-2.3597,-2.3595,-2.3596,-2.357,-2.3536,-2.3535,-2.3532,-2.353,-2.3539,0,-2.3551,0,-2.3532,-2.3513,-2.3513,0,0,0,-2.3559,-2.3599,-2.3577,-2.3596,-2.357,-2.3536,-2.3548,-2.353,-2.3529,-2.3537,-2.355,-2.3549,-2.3532,-2.3513,-2.3513,-2.3603,-2.3604,0,0,-2.3561,-2.3596,-2.3578,-2.3577,-2.3584,-2.3549,-2.3547,-2.3529,-2.3546,-2.355,-2.3548,-2.3531,-2.3513,-2.3513,-2.3602,-2.3603,0,0,0,-2.3574,-2.3598,-2.3576,-2.3578,-2.357,-2.3548,-2.3546,-2.3546,-2.3536,-2.3547,-2.3531,-2.3513,-2.3513,-2.3601,-2.3603,-2.3684,0,0,0,-2.3575,-2.3605,-2.3577,-2.3598,-2.3571,-2.3558,-2.3564,-2.3538,-2.3534,-2.3531,-2.3513,-2.3513,-2.36,-2.3602,-2.368,-2.3717,0,0,0,-2.3592,-2.3607,-2.3607,-2.36,-2.3587,-2.3557,-2.3546,-2.3536,-2.3525,-2.3513,-2.3513,-2.3599,-2.3602,-2.3675,-2.371,-2.3752,0,0,0,-2.3621,-2.3679,-2.3609,-2.3667,-2.3587,-2.3609,-2.3546,-2.3559,-2.3559,-2.3513,-2.36,-2.3602,-2.3674,-2.3705,-2.3748,-2.3794,-2.3816,0,0,-2.3713,-2.3691,-2.3722,-2.3659,-2.3702,-2.3611,-2.3665,-2.3631,-2.3596,-2.3603,-2.3604,-2.3681,-2.3709,-2.3751,-2.3928,-2.3947,0,0,0,-2.3763,-2.3786,-2.379,-2.3792,-2.3768,-2.3751,-2.3705,-2.3693,-2.3696,-2.3607,-2.3706,-2.3722,-2.3745,-2.3765,-2.378,-2.3798,-2.3613,-2.3613,-2.3613,-2.3943,-2.3898,-2.3948,-2.3899,-2.3902,-2.3855,-2.3853,-2.3828,-2.378,-2.3805,-2.3806,-2.392,-2.3945,-2.3956,-2.3976,-2.3827,-2.3827,-2.3827,-2.3827,-2.4074,-2.41,-2.4038,-2.4063,-2.4016,-2.4036,-2.3994,-2.396,-2.3972,-2.3914,-2.3932,-2.3874,-2.3978,-2.3992,-2.3833,-2.3832,-2.3831,-2.3831,-2.383,-2.4188,-2.4193,-2.4178,-2.4177,-2.4182,-2.4131,-2.4147,-2.4102,-2.4059,-2.4077,-2.4075,-2.4073,-2.4067,-2.4079,-2.408,-2.408,-2.408,-2.4081,-2.4081,-2.4312,-2.4292,-2.4311,-2.4293,-2.4289,-2.4279,-2.4234,-2.4229,-2.4212,-2.4178,-2.4178,-2.4129,-2.3996,-2.3964,-2.4087,-2.4086,-2.4085,-2.4085,-2.4084,-2.4462,-2.4421,-2.4451,-2.4448,-2.4423,-2.4432,-2.4375,-2.437,-2.4359,-2.4369,-2.4316,-2.4225,-2.4199,-2.4186,-2.4159,-2.4325,-2.4325,-2.4325,-2.4325,-2.4559,-2.4541,-2.4563,-2.4561,-2.4554,-2.4506,-2.4542,-2.4508,-2.4466,-2.4457,-2.4426,-2.4387,-2.4376,-2.4356,-2.434,-2.4314,-2.4516,-2.4516,-2.4516,-2.4649,-2.463,-2.4669,-2.4628,-2.4606,-2.4589,-2.4621,-2.4621,-2.4565,-2.4523,-2.4449,-2.4441,-2.4377,-2.4358,-2.4314,-2.429,-2.4242,0,0]},{"header":{"parameterUnit":"m.s-1","parameterCategory":1,"la1":30.2992,"la2":30.254,"lo1":-89.0895,"lo2":-89.0443,"dy":0.0025,"dx":0.0025,"nx":19,"ny":19,"refTime":"2026-04-10T09:00:00:Z","depth":0,"parameterNumber":3,"parameterNumberName":"V-component_of_WINDS"},"data":[0,0,0,2.5055,2.5056,2.5065,2.5065,2.5073,2.5073,0,0,0,0,0,0,0,0,0,0,0,2.5052,2.5052,2.5055,2.5056,2.5065,2.5065,2.5073,2.5073,0,0,0,0,0,0,0,0,0,0,0,2.5052,2.5052,2.5052,2.5056,2.5065,2.5065,2.5073,2.5067,0,0,0,0,0,0,0,0,0,0,2.5059,2.5054,2.5052,2.5052,2.5056,2.5065,2.5065,2.5067,2.5067,2.5068,0,2.5069,0,2.5071,2.5073,2.5073,0,0,0,2.5056,2.5054,2.5058,2.5052,2.5056,2.5065,2.5061,2.5067,2.5068,2.5068,2.5069,2.5069,2.5071,2.5073,2.5073,2.5078,2.5078,0,0,2.5055,2.5052,2.5057,2.5058,2.5058,2.506,2.5061,2.5067,2.5067,2.5069,2.5069,2.5071,2.5073,2.5073,2.5078,2.5078,0,0,0,2.5054,2.5052,2.5056,2.5058,2.506,2.5061,2.5061,2.5067,2.5068,2.507,2.5071,2.5073,2.5073,2.5078,2.5078,2.5077,0,0,0,2.5054,2.5051,2.5055,2.5053,2.5059,2.5063,2.506,2.5068,2.5069,2.5071,2.5073,2.5073,2.5078,2.5078,2.5077,2.5076,0,0,0,2.5051,2.5051,2.5052,2.5053,2.5057,2.5063,2.5065,2.5068,2.507,2.5073,2.5073,2.5078,2.5078,2.5077,2.5076,2.5077,0,0,0,2.5048,2.5049,2.5052,2.5054,2.5057,2.5063,2.5065,2.5069,2.5072,2.5073,2.5078,2.5078,2.5077,2.5076,2.5077,2.5077,2.5077,0,0,2.5047,2.5049,2.505,2.5053,2.5058,2.5062,2.5066,2.507,2.5072,2.5076,2.5076,2.5077,2.5076,2.5077,2.5078,2.5078,0,0,0,2.5049,2.505,2.5052,2.5055,2.506,2.5064,2.5069,2.5071,2.5075,2.5074,2.5077,2.5077,2.5078,2.5078,2.5078,2.5079,2.5078,2.5078,2.5078,2.5042,2.5047,2.505,2.5057,2.506,2.5066,2.5069,2.5073,2.5075,2.5076,2.5076,2.5077,2.5077,2.5077,2.5078,2.5077,2.5077,2.5077,2.5077,2.5042,2.5044,2.505,2.5055,2.506,2.5063,2.507,2.5071,2.5075,2.5076,2.5077,2.5077,2.5077,2.5078,2.5077,2.5077,2.5077,2.5077,2.5077,2.5038,2.504,2.5044,2.5051,2.5056,2.5062,2.5066,2.507,2.5073,2.5074,2.5076,2.5076,2.5077,2.5075,2.5075,2.5075,2.5075,2.5075,2.5075,2.5032,2.5037,2.5041,2.5048,2.5051,2.5057,2.5064,2.5067,2.5072,2.5074,2.5075,2.5077,2.5076,2.5076,2.5075,2.5075,2.5075,2.5075,2.5075,2.5029,2.5031,2.5037,2.5041,2.505,2.5055,2.5061,2.5068,2.5071,2.5073,2.5076,2.5075,2.5076,2.5076,2.5076,2.5075,2.5075,2.5075,2.5075,2.5026,2.5027,2.5035,2.5042,2.5048,2.5055,2.5061,2.5068,2.5074,2.5076,2.5077,2.5077,2.5077,2.5078,2.5078,2.5078,2.5078,2.5078,2.5078,2.5024,2.5027,2.5032,2.504,2.5048,2.5055,2.5061,2.5068,2.5075,2.5078,2.5078,2.5078,2.5078,2.5078,2.508,2.508,2.5079,0,0]}]]